GW2646 Weather Reports


time (UTC)temp
C
wind
direction
speed
KPH
gust
KPH
rain 1hr
cm
rain 24hr
cm
rain mn
cm
humidity
%
barometer
mb
20260503032547 19 0 0.0 6.4 0.00 0.00 0.00 58 1013.1
20260503032050 19 0 0.0 4.8 0.00 0.00 0.00 57 1013.2
20260503031556 20 0 0.0 4.8 0.00 0.00 0.00 56 1013.2
20260503031046 20 0 0.0 4.8 0.00 0.00 0.00 55 1013.1
20260503030548 20 0 0.0 4.8 0.00 0.00 0.00 55 1013.0
20260503030104 20 0 0.0 6.4 0.00 0.00 0.00 54 1013.0
20260503025545 20 0 1.6 6.4 0.00 0.00 0.00 53 1013.0
20260503025047 21 0 1.6 6.4 0.00 0.00 0.00 53 1012.9
20260503024618 21 0 0.0 9.7 0.00 0.00 0.00 52 1012.9
20260503024044 21 306 1.6 9.7 0.00 0.00 0.00 52 1012.9
20260503023549 21 243 1.6 6.4 0.00 0.00 0.00 51 1012.8
20260503023053 21 0 0.0 6.4 0.00 0.00 0.00 50 1012.8
20260503022549 21 324 1.6 9.7 0.00 0.00 0.00 50 1012.9
20260503022048 21 276 1.6 11.3 0.00 0.00 0.00 50 1012.8
20260503021558 21 305 3.2 11.3 0.00 0.00 0.00 49 1012.8
20260503021048 22 276 1.6 12.9 0.00 0.00 0.00 48 1012.9
20260503020551 22 304 3.2 12.9 0.00 0.00 0.00 48 1012.9
20260503020050 22 323 3.2 11.3 0.00 0.00 0.00 47 1012.8
20260503015551 22 305 3.2 11.3 0.00 0.00 0.00 47 1012.9
20260503015047 22 307 3.2 12.9 0.00 0.00 0.00 47 1012.9
20260503014553 22 299 1.6 12.9 0.00 0.00 0.00 46 1012.9
20260503014048 23 307 1.6 8.0 0.00 0.00 0.00 46 1013.0
20260503013550 23 0 1.6 8.0 0.00 0.00 0.00 46 1013.0
20260503013050 23 294 0.0 9.7 0.00 0.00 0.00 46 1013.1
20260503012554 23 316 3.2 9.7 0.00 0.00 0.00 46 1013.1
20260503012047 23 309 3.2 11.3 0.00 0.00 0.00 46 1013.0
20260503011559 23 317 3.2 12.9 0.00 0.00 0.00 46 1013.0
20260503011049 23 344 3.2 12.9 0.00 0.00 0.00 47 1013.1
20260503010548 23 349 3.2 12.9 0.00 0.00 0.00 46 1013.1
20260503010051 22 334 3.2 12.9 0.00 0.00 0.00 46 1013.2
20260503005548 22 283 3.2 16.1 0.00 0.00 0.00 47 1013.3
20260503005048 22 318 6.4 16.1 0.00 0.00 0.00 47 1013.4
20260503004618 22 313 4.8 16.1 0.00 0.00 0.00 46 1013.4
20260503004047 22 294 4.8 17.7 0.00 0.00 0.00 46 1013.5
20260503003548 22 296 4.8 17.7 0.00 0.00 0.00 46 1013.4
20260503003051 22 303 6.4 12.9 0.00 0.00 0.00 47 1013.4
20260503002551 22 348 4.8 19.3 0.00 0.00 0.00 47 1013.4
20260503002048 22 279 4.8 19.3 0.00 0.00 0.00 49 1013.3
20260503001600 22 315 6.4 19.3 0.00 0.00 0.00 50 1013.3
20260503001048 22 294 8.0 17.7 0.00 0.00 0.00 51 1013.3
20260503000547 22 260 8.0 17.7 0.00 0.00 0.00 51 1013.5
20260503000106 22 265 8.0 17.7 0.00 0.00 0.00 50 1013.5
20260502235548 22 303 6.4 17.7 0.00 0.00 0.00 52 1013.6
20260502235048 22 296 6.4 17.7 0.00 0.00 0.00 51 1013.6
20260502234616 23 286 6.4 16.1 0.00 0.00 0.00 50 1013.6
20260502234048 22 0 3.2 16.1 0.00 0.00 0.00 52 1013.7
20260502233547 22 16 6.4 19.3 0.00 0.00 0.00 51 1013.7
20260502233108 22 277 6.4 19.3 0.00 0.00 0.00 52 1013.7
20260502232548 23 295 1.6 14.5 0.00 0.00 0.00 48 1013.7
20260502232048 22 307 4.8 14.5 0.00 0.00 0.00 51 1013.7
20260502231606 22 242 4.8 14.5 0.00 0.00 0.00 51 1013.8
20260502231051 23 244 1.6 12.9 0.00 0.00 0.00 50 1013.8
20260502230546 22 291 6.4 12.9 0.00 0.00 0.00 51 1013.9
20260502230053 22 300 4.8 12.9 0.00 0.00 0.00 52 1013.9
20260502225548 22 0 4.8 12.9 0.00 0.00 0.00 54 1014.0
20260502225045 22 77 4.8 17.7 0.00 0.00 0.00 53 1014.0
20260502224549 22 280 4.8 17.7 0.00 0.00 0.00 56 1014.1
20260502224045 22 213 4.8 16.1 0.00 0.00 0.00 56 1014.1
20260502223546 22 302 6.4 16.1 0.00 0.00 0.00 57 1014.3
20260502223055 23 327 3.2 16.1 0.00 0.00 0.00 56 1014.3
20260502222543 22 190 3.2 16.1 0.00 0.00 0.00 58 1014.3
20260502222045 22 309 9.7 16.1 0.00 0.00 0.00 59 1014.4
20260502221601 22 311 6.4 16.1 0.00 0.00 0.00 59 1014.5
20260502221045 22 268 6.4 16.1 0.00 0.00 0.00 60 1014.5
20260502220548 22 289 6.4 19.3 0.00 0.00 0.00 60 1014.5
20260502220053 22 275 8.0 19.3 0.00 0.00 0.00 60 1014.6
20260502215546 22 0 6.4 19.3 0.00 0.00 0.00 61 1014.6
20260502215049 22 306 6.4 14.5 0.00 0.00 0.00 61 1014.6
20260502214603 22 302 3.2 12.9 0.00 0.00 0.00 62 1014.6
20260502214046 22 232 4.8 14.5 0.00 0.00 0.00 61 1014.8
20260502213546 22 322 1.6 14.5 0.00 0.00 0.00 62 1015.0
20260502213055 22 291 4.8 22.5 0.00 0.00 0.00 63 1015.0
20260502212546 21 277 3.2 22.5 0.00 0.00 0.00 64 1015.0
20260502212045 21 148 3.2 14.5 0.00 0.00 0.00 64 1015.0
20260502211556 21 205 6.4 16.1 0.00 0.00 0.00 65 1015.1
20260502211049 21 302 3.2 16.1 0.00 0.00 0.00 62 1015.2
20260502210545 21 251 3.2 16.1 0.00 0.00 0.00 62 1015.2
20260502210051 21 308 6.4 16.1 0.00 0.00 0.00 65 1015.2
20260502205545 21 264 4.8 16.1 0.00 0.00 0.00 65 1015.2
20260502205047 21 270 1.6 16.1 0.00 0.00 0.00 64 1015.3
20260502204555 21 312 4.8 16.1 0.00 0.00 0.00 66 1015.3
20260502204045 21 235 6.4 16.1 0.00 0.00 0.00 67 1015.3
20260502203544 21 225 4.8 14.5 0.00 0.00 0.00 66 1015.3
20260502203108 20 210 3.2 14.5 0.00 0.00 0.00 68 1015.3
20260502202545 21 344 3.2 11.3 0.00 0.00 0.00 68 1015.4
20260502202046 20 247 4.8 14.5 0.00 0.00 0.00 70 1015.5
20260502201553 20 310 4.8 16.1 0.00 0.00 0.00 70 1015.5
20260502201047 20 221 4.8 16.1 0.00 0.00 0.00 69 1015.6
20260502200547 20 311 3.2 12.9 0.00 0.00 0.00 69 1015.7
20260502200051 20 325 3.2 12.9 0.00 0.00 0.00 69 1015.7
20260502195548 20 269 1.6 12.9 0.00 0.00 0.00 69 1015.8
20260502195047 20 286 1.6 12.9 0.00 0.00 0.00 70 1015.9
20260502194551 18 258 4.8 12.9 0.00 0.00 0.00 72 1015.9
20260502194047 19 298 3.2 17.7 0.00 0.00 0.00 72 1015.9
20260502193548 18 213 6.4 17.7 0.00 0.00 0.00 74 1016.0
20260502193051 18 283 4.8 16.1 0.00 0.00 0.00 73 1016.0
20260502192546 18 316 3.2 16.1 0.00 0.00 0.00 72 1016.1
20260502192048 18 310 6.4 16.1 0.00 0.00 0.00 73 1016.1
20260502191551 18 0 3.2 14.5 0.00 0.00 0.00 74 1016.1
20260502191048 18 306 6.4 14.5 0.00 0.00 0.00 74 1016.2
20260502190545 18 281 4.8 11.3 0.00 0.00 0.00 74 1016.2
20260502190053 18 15 3.2 12.9 0.00 0.00 0.00 72 1016.3
20260502185548 18 0 1.6 12.9 0.00 0.00 0.00 73 1016.3
20260502185048 18 282 3.2 9.7 0.00 0.00 0.00 70 1016.3
20260502184552 18 322 1.6 9.7 0.00 0.00 0.00 71 1016.4
20260502184051 18 260 3.2 9.7 0.00 0.00 0.00 71 1016.5
20260502183547 18 16 3.2 8.0 0.00 0.00 0.00 73 1016.4
20260502183058 17 203 1.6 11.3 0.00 0.00 0.00 74 1016.5
20260502182549 17 252 1.6 11.3 0.00 0.00 0.00 76 1016.4
20260502182047 17 315 1.6 11.3 0.00 0.00 0.00 75 1016.5
20260502181551 17 296 0.0 11.3 0.00 0.00 0.00 76 1016.4
20260502181047 17 234 1.6 9.7 0.00 0.00 0.00 76 1016.6
20260502180550 16 234 3.2 9.7 0.00 0.00 0.00 76 1016.5
20260502164047 13 317 1.6 8.0 0.00 0.00 0.00 87 1016.8
20260502163547 13 309 1.6 11.3 0.00 0.00 0.00 86 1016.8
20260502163104 13 210 1.6 11.3 0.00 0.00 0.00 87 1017.0
20260502162551 13 241 3.2 8.0 0.00 0.00 0.00 87 1017.0
20260502162050 12 0 0.0 4.8 0.00 0.00 0.00 88 1016.9
20260502161558 12 0 0.0 4.8 0.00 0.00 0.00 90 1016.9
20260502161048 12 0 0.0 4.8 0.00 0.00 0.00 90 1016.8
20260502160548 12 0 1.6 6.4 0.00 0.00 0.00 90 1016.8
20260502160104 11 0 1.6 6.4 0.00 0.00 0.00 90 1016.8
20260502152047 11 0 1.6 8.0 0.00 0.00 0.00 91 1016.7
20260502151556 11 196 1.6 8.0 0.00 0.00 0.00 91 1016.7
20260502151050 11 0 1.6 8.0 0.00 0.00 0.00 92 1016.8
20260502150548 10 220 0.0 8.0 0.00 0.00 0.00 92 1016.7
20260502130549 8 0 0.0 0.0 0.00 0.00 0.00 93 1017.2
20260502123547 8 0 0.0 6.4 0.00 0.00 0.00 93 1017.3
20260502123053 8 167 3.2 6.4 0.00 0.00 0.00 93 1017.2
20260502122548 8 167 0.0 6.4 0.00 0.00 0.00 93 1017.2
20260502122047 8 0 0.0 6.4 0.00 0.00 0.00 93 1017.2
20260502121554 8 167 1.6 6.4 0.00 0.00 0.00 93 1017.1
20260502121051 8 167 0.0 1.6 0.00 0.00 0.00 93 1016.8
20260502120547 8 0 0.0 1.6 0.00 0.00 0.00 93 1016.9
20260502120110 8 0 0.0 1.6 0.00 0.00 0.00 93 1016.7
20260502115547 8 0 0.0 6.4 0.00 0.00 0.00 93 1016.7
20260502115045 8 0 0.0 6.4 0.00 0.00 0.00 93 1016.6
20260502114601 8 167 1.6 6.4 0.00 0.00 0.00 93 1016.5
20260502114048 8 0 0.0 0.0 0.00 0.00 0.00 93 1016.4
20260502113547 8 0 0.0 0.0 0.00 0.00 0.00 92 1016.3
20260502113053 8 0 0.0 0.0 0.00 0.00 0.00 92 1016.3
20260502112548 8 0 0.0 0.0 0.00 0.00 0.00 92 1016.3
20260502112047 8 0 0.0 0.0 0.00 0.00 0.00 92 1016.4
20260502111601 8 0 0.0 0.0 0.00 0.00 0.00 92 1016.4
20260502111049 8 0 0.0 0.0 0.00 0.00 0.00 92 1016.4
20260502110547 9 0 0.0 0.0 0.00 0.00 0.00 92 1016.5
20260502110057 8 0 0.0 1.6 0.00 0.00 0.00 92 1016.4
20260502105548 8 0 0.0 1.6 0.00 0.00 0.00 92 1016.3
20260502105047 8 167 0.0 1.6 0.00 0.00 0.00 91 1016.5
20260502104555 8 0 0.0 0.0 0.00 0.00 0.00 91 1016.6
20260502104046 8 0 0.0 0.0 0.00 0.00 0.00 91 1016.7
20260502103545 9 0 0.0 0.0 0.00 0.00 0.00 91 1016.7
20260502103051 9 0 0.0 0.0 0.00 0.00 0.00 91 1016.6
20260502102546 9 0 0.0 0.0 0.00 0.00 0.00 90 1016.6
20260502102046 9 0 0.0 0.0 0.00 0.00 0.00 90 1016.6
20260502101554 9 0 0.0 0.0 0.00 0.00 0.00 90 1016.6
20260502101045 9 0 0.0 0.0 0.00 0.00 0.00 90 1016.5
20260502100547 9 0 0.0 0.0 0.00 0.00 0.00 90 1016.5
20260502100110 9 0 0.0 0.0 0.00 0.00 0.00 90 1016.5
20260502091045 10 0 0.0 4.8 0.00 0.00 0.00 89 1016.4
20260502090546 10 0 0.0 4.8 0.00 0.00 0.00 89 1016.4
20260502071048 11 0 0.0 1.6 0.00 0.00 0.00 85 1016.2
20260502070547 11 0 0.0 1.6 0.00 0.00 0.00 85 1016.1
20260502070048 11 0 0.0 1.6 0.00 0.00 0.00 85 1016.1
20260502065548 11 0 0.0 0.0 0.00 0.00 0.00 84 1016.1
20260502065047 11 0 0.0 0.0 0.00 0.00 0.00 84 1016.2
20260502064600 11 0 0.0 3.2 0.00 0.00 0.00 84 1016.1
20260502064048 11 0 0.0 3.2 0.00 0.00 0.00 83 1016.1
20260502063551 11 0 0.0 1.6 0.00 0.00 0.00 83 1016.2
20260502063052 11 0 0.0 3.2 0.00 0.00 0.00 83 1016.1
20260502062548 11 0 0.0 3.2 0.00 0.00 0.00 83 1016.1
20260502062051 11 0 0.0 3.2 0.00 0.00 0.00 83 1016.2
20260502061558 11 0 0.0 3.2 0.00 0.00 0.00 83 1016.1
20260502061045 11 212 0.0 3.2 0.00 0.00 0.00 83 1016.1
20260502060547 11 0 0.0 1.6 0.00 0.00 0.00 82 1016.0
20260502060059 11 0 0.0 1.6 0.00 0.00 0.00 82 1016.0
20260502055550 11 0 0.0 3.2 0.00 0.00 0.00 82 1016.1
20260502055048 11 0 0.0 3.2 0.00 0.00 0.00 82 1015.9
20260502054552 12 0 0.0 3.2 0.00 0.00 0.00 82 1015.9
20260502054049 12 0 0.0 4.8 0.00 0.00 0.00 82 1015.8
20260502053548 12 0 0.0 4.8 0.00 0.00 0.00 81 1015.9
20260502053052 12 212 0.0 3.2 0.00 0.00 0.00 80 1015.9
20260502052551 12 0 0.0 1.6 0.00 0.00 0.00 80 1015.8
20260502052048 12 0 0.0 1.6 0.00 0.00 0.00 79 1015.9
20260502051634 12 0 0.0 1.6 0.00 0.00 0.00 79 1015.8
20260502051047 12 0 0.0 3.2 0.00 0.00 0.00 79 1015.8
20260502050547 12 0 0.0 3.2 0.00 0.00 0.00 78 1015.9
20260502050054 12 0 0.0 0.0 0.00 0.00 0.00 78 1015.7
20260502045548 12 0 0.0 4.8 0.00 0.00 0.00 78 1015.5
20260502045048 12 0 0.0 4.8 0.00 0.00 0.00 77 1015.6
20260502044602 12 0 0.0 4.8 0.00 0.00 0.00 76 1015.6
20260502044048 12 0 0.0 4.8 0.00 0.00 0.00 76 1015.6
20260502043548 12 200 0.0 4.8 0.00 0.00 0.00 76 1015.7
20260502043053 12 0 1.6 4.8 0.00 0.00 0.00 77 1015.6
20260502042551 12 200 1.6 4.8 0.00 0.00 0.00 78 1015.6
20260502042048 12 0 0.0 0.0 0.00 0.00 0.00 77 1015.6
20260502041550 13 0 0.0 1.6 0.00 0.00 0.00 77 1015.4
20260502041052 13 0 0.0 3.2 0.00 0.00 0.00 76 1015.6
20260502040548 13 0 0.0 4.8 0.00 0.00 0.00 76 1015.4
20260502040052 13 200 1.6 4.8 0.00 0.00 0.00 74 1015.6
20260502035547 13 0 0.0 8.0 0.00 0.00 0.00 75 1015.7
20260502035048 13 0 1.6 8.0 0.00 0.00 0.00 72 1015.6
20260502034552 13 168 1.6 12.9 0.00 0.00 0.00 73 1015.7
20260502034048 13 0 1.6 12.9 0.00 0.00 0.00 71 1015.6
20260502033549 13 304 3.2 14.5 0.00 0.00 0.00 70 1015.3
20260502033056 14 314 3.2 14.5 0.00 0.00 0.00 68 1015.0